timestamp,surface_pressure_avg,surface_temp_avg,battery_voltage,lat,long
2024-04-07 00:09:00+00:00,310.3347,0.97,11.93,47.84626,-54.09684
2024-04-07 00:19:00+00:00,306.9596,1.0,11.93,47.84626,-54.09684
2024-04-07 00:29:00+00:00,299.9714,1.38,11.93,47.84626,-54.09684
2024-04-07 00:39:00+00:00,290.8298,1.19,11.93,47.84626,-54.09684
2024-04-07 00:49:00+00:00,284.0731,0.92,11.93,47.84626,-54.09684
2024-04-07 00:59:00+00:00,278.8114,0.9,11.93,47.84626,-54.09684
2024-04-07 01:09:00+00:00,270.0864,0.9,11.93,47.84626,-54.09684
2024-04-07 01:19:00+00:00,260.2581,0.9,11.93,47.84626,-54.09684
2024-04-07 01:29:00+00:00,250.5314,0.9,11.93,47.84626,-54.09684
2024-04-07 01:39:00+00:00,241.3998,0.9,11.93,47.84626,-54.09684
2024-04-07 01:49:00+00:00,235.9147,0.9,11.93,47.84626,-54.09684
2024-04-07 01:59:00+00:00,231.3348,0.9,11.93,47.84626,-54.09684
2024-04-07 02:09:00+00:00,224.6098,0.9,11.93,47.84626,-54.09684
2024-04-07 02:19:00+00:00,214.6848,0.9,11.93,47.84626,-54.09684
2024-04-07 02:29:00+00:00,207.0998,0.9,11.93,47.84626,-54.09684
2024-04-07 02:39:00+00:00,203.2014,0.96,11.93,47.84626,-54.09684
2024-04-07 02:49:00+00:00,197.0731,1.2,11.93,47.84626,-54.09684
2024-04-07 02:59:00+00:00,188.9515,1.5,11.93,47.84626,-54.09684
2024-04-07 03:09:00+00:00,183.6365,1.4,11.93,47.84626,-54.09684
2024-04-07 03:19:00+00:00,179.9081,1.4,11.93,47.84626,-54.09684
2024-04-07 03:29:00+00:00,177.2831,1.3,11.93,47.84626,-54.09684
2024-04-07 03:39:00+00:00,175.7631,1.27,11.93,47.84626,-54.09684
2024-04-07 03:49:00+00:00,171.0298,1.27,11.93,47.84626,-54.09684
2024-04-07 03:59:00+00:00,168.3164,1.2,11.93,47.84626,-54.09684
2024-04-07 04:09:00+00:00,170.2731,1.2,11.93,47.84626,-54.09684
2024-04-07 04:19:00+00:00,170.4965,1.2,11.86,47.84626,-54.09684
2024-04-07 04:29:00+00:00,167.5182,1.2,11.86,47.84626,-54.09684
2024-04-07 04:39:00+00:00,167.2431,1.2,11.86,47.84626,-54.09684
2024-04-07 04:49:00+00:00,171.2448,1.2,11.86,47.84626,-54.09684
2024-04-07 04:59:00+00:00,173.5348,1.18,11.86,47.84626,-54.09684
2024-04-07 05:09:00+00:00,176.3299,1.13,11.86,47.84626,-54.09684
2024-04-07 05:19:00+00:00,181.0165,1.1,11.86,47.84626,-54.09684
2024-04-07 05:29:00+00:00,186.0514,1.1,11.86,47.84626,-54.09684
2024-04-07 05:39:00+00:00,190.6298,1.1,11.86,47.84626,-54.09684
2024-04-07 05:49:00+00:00,193.4815,1.1,11.86,47.84626,-54.09684
2024-04-07 05:59:00+00:00,203.5714,1.1,11.86,47.84626,-54.09684
2024-04-07 06:09:00+00:00,217.5748,1.1,11.86,47.84626,-54.09684
2024-04-07 06:19:00+00:00,223.5364,1.1,11.86,47.84626,-54.09684
2024-04-07 06:29:00+00:00,223.7631,1.1,11.86,47.84626,-54.09684
2024-04-07 06:39:00+00:00,227.5581,1.1,11.86,47.84626,-54.09684
2024-04-07 06:49:00+00:00,236.4931,1.1,11.86,47.84626,-54.09684
2024-04-07 06:59:00+00:00,239.6764,1.1,11.86,47.84626,-54.09684
2024-04-07 07:09:00+00:00,240.4364,1.1,11.86,47.84626,-54.09684
2024-04-07 07:19:00+00:00,248.1631,1.1,11.86,47.84626,-54.09684
2024-04-07 07:29:00+00:00,261.4914,1.0,11.86,47.84626,-54.09684
2024-04-07 07:39:00+00:00,267.1731,1.0,11.86,47.84626,-54.09684
2024-04-07 07:49:00+00:00,270.0981,1.0,11.86,47.84626,-54.09684
2024-04-07 07:59:00+00:00,282.4264,1.0,11.86,47.84626,-54.09684
2024-04-07 08:09:00+00:00,297.0264,1.0,11.86,47.84626,-54.09684
2024-04-07 08:19:00+00:00,304.4297,1.0,11.86,47.84626,-54.09684
2024-04-07 08:29:00+00:00,312.6913,1.0,11.86,47.84626,-54.09684
2024-04-07 08:39:00+00:00,323.8279,1.0,11.86,47.84626,-54.09684
2024-04-07 08:49:00+00:00,335.1964,0.97,11.86,47.84626,-54.09684
2024-04-07 08:59:00+00:00,341.5046,0.96,11.86,47.84626,-54.09684
2024-04-07 09:09:00+00:00,351.0131,0.98,11.86,47.84626,-54.09684
2024-04-07 09:19:00+00:00,354.49300000000005,1.0,11.86,47.84626,-54.09684
2024-04-07 09:29:00+00:00,352.4547,1.0,11.86,47.84626,-54.09684
2024-04-07 09:39:00+00:00,353.088,1.0,11.86,47.84626,-54.09684
2024-04-07 09:49:00+00:00,354.8263,1.0,11.86,47.84626,-54.09684
2024-04-07 09:59:00+00:00,363.8697,1.0,11.86,47.84626,-54.09684
2024-04-07 10:09:00+00:00,366.6196,1.0,11.86,47.84626,-54.09684
2024-04-07 10:19:00+00:00,363.4896,1.0,11.93,47.84626,-54.09684
2024-04-07 10:29:00+00:00,366.9397,1.0,11.93,47.84626,-54.09684
2024-04-07 10:39:00+00:00,368.4762,1.0,11.93,47.84626,-54.09684
2024-04-07 10:49:00+00:00,368.5079,1.0,11.93,47.84626,-54.09684
2024-04-07 10:59:00+00:00,368.6062,1.0,11.93,47.84626,-54.09684
2024-04-07 11:09:00+00:00,368.8011,1.0,11.93,47.84626,-54.09684
2024-04-07 11:19:00+00:00,366.5046,1.0,12.17,47.84626,-54.09684
2024-04-07 11:29:00+00:00,360.4513,1.0,12.17,47.84626,-54.09684
2024-04-07 11:39:00+00:00,359.2046,1.0,12.17,47.84626,-54.09684
2024-04-07 11:49:00+00:00,357.673,1.0,12.17,47.84626,-54.09684
2024-04-07 11:59:00+00:00,352.69300000000015,1.04,12.17,47.84626,-54.09684
2024-04-07 12:09:00+00:00,346.5697,1.09,12.17,47.84626,-54.09684
2024-04-07 12:19:00+00:00,345.3829,1.1,12.25,47.84626,-54.09684
2024-04-07 12:29:00+00:00,340.843,1.1,12.25,47.84626,-54.09684
2024-04-07 12:39:00+00:00,330.708,1.1,12.25,47.84626,-54.09684
2024-04-07 12:49:00+00:00,320.388,1.1,12.25,47.84626,-54.09684
2024-04-07 12:59:00+00:00,314.4097,1.13,12.25,47.84626,-54.09684
2024-04-07 13:09:00+00:00,307.9264,1.12,12.25,47.84626,-54.09684
2024-04-07 13:19:00+00:00,296.028,1.1,12.25,47.84626,-54.09684
2024-04-07 13:29:00+00:00,286.4247,1.1,12.25,47.84626,-54.09684
2024-04-07 13:39:00+00:00,275.8547,1.1,12.25,47.84626,-54.09684
2024-04-07 13:49:00+00:00,264.7947,1.1,12.25,47.84626,-54.09684
2024-04-07 13:59:00+00:00,254.7147,1.1,12.25,47.84626,-54.09684
2024-04-07 14:09:00+00:00,244.2115,1.1,12.25,47.84626,-54.09684
2024-04-07 14:19:00+00:00,234.0231,1.1,12.17,47.84626,-54.09684
2024-04-07 14:29:00+00:00,225.4714,1.1,12.17,47.84626,-54.09684
2024-04-07 14:39:00+00:00,220.7664,1.1,12.17,47.84626,-54.09684
2024-04-07 14:49:00+00:00,215.0798,1.1,12.17,47.84626,-54.09684
2024-04-07 14:59:00+00:00,209.7398,1.14,12.17,47.84626,-54.09684
2024-04-07 15:09:00+00:00,203.7431,1.17,12.17,47.84626,-54.09684
2024-04-07 15:19:00+00:00,197.6514,1.2,12.33,47.84626,-54.09684
2024-04-07 15:29:00+00:00,194.7281,1.41,12.33,47.84626,-54.09684
2024-04-07 15:39:00+00:00,189.6781,1.5,12.33,47.84626,-54.09684
2024-04-07 15:49:00+00:00,180.9432,1.4,12.33,47.84626,-54.09684
2024-04-07 15:59:00+00:00,175.6765,1.3,12.33,47.84626,-54.09684
2024-04-07 16:09:00+00:00,174.7448,1.21,12.33,47.84626,-54.09684
2024-04-07 16:19:01+00:00,174.9632,1.2,12.33,47.84626,-54.09684
2024-04-07 16:29:01+00:00,175.0231,1.2,12.33,47.84626,-54.09684
2024-04-07 16:39:01+00:00,176.2664,1.22,12.33,47.84626,-54.09684
2024-04-07 16:49:01+00:00,179.7215,1.27,12.33,47.84626,-54.09684
2024-04-07 16:59:01+00:00,180.2432,1.3,12.33,47.84626,-54.09684
2024-04-07 17:09:01+00:00,181.3165,1.3,12.33,47.84626,-54.09684
2024-04-07 17:19:00+00:00,185.8548,1.3,12.25,47.84626,-54.09684
2024-04-07 17:29:00+00:00,185.7465,1.39,12.25,47.84626,-54.09684
2024-04-07 17:39:00+00:00,186.3881,1.4,12.25,47.84626,-54.09684
2024-04-07 17:49:00+00:00,190.3648,1.45,12.25,47.84626,-54.09684
2024-04-07 17:59:00+00:00,194.5565,1.7,12.25,47.84626,-54.09684
2024-04-07 18:09:00+00:00,198.8248,1.7,12.25,47.84626,-54.09684
2024-04-07 18:19:00+00:00,203.2281,1.6,12.17,47.84626,-54.09684
2024-04-07 18:29:00+00:00,210.4381,1.5,12.17,47.84626,-54.09684
2024-04-07 18:39:00+00:00,215.9531,1.5,12.17,47.84626,-54.09684
2024-04-07 18:49:00+00:00,222.2848,1.5,12.17,47.84626,-54.09684
2024-04-07 18:59:00+00:00,228.8581,1.49,12.17,47.84626,-54.09684
2024-04-07 19:09:00+00:00,237.3798,1.49,12.17,47.84626,-54.09684
2024-04-07 19:19:00+00:00,243.9698,1.5,12.17,47.84626,-54.09684
2024-04-07 19:29:00+00:00,248.4147,1.5,12.17,47.84626,-54.09684
2024-04-07 19:39:00+00:00,252.2464,1.5,12.17,47.84626,-54.09684
2024-04-07 19:49:00+00:00,259.3997,1.3,12.17,47.84626,-54.09684
2024-04-07 19:59:00+00:00,264.7598,1.2,12.17,47.84626,-54.09684
2024-04-07 20:09:00+00:00,269.5198,1.37,12.17,47.84626,-54.09684
2024-04-07 20:19:00+00:00,277.6347,2.06,12.09,47.84626,-54.09684
2024-04-07 20:29:00+00:00,288.3313,1.38,12.09,47.84626,-54.09684
2024-04-07 20:39:00+00:00,295.283,1.5,12.09,47.84626,-54.09684
2024-04-07 20:49:00+00:00,303.9064,1.4,12.09,47.84626,-54.09684
2024-04-07 20:59:00+00:00,316.2446,1.36,12.09,47.84626,-54.09684
2024-04-07 21:09:00+00:00,327.4045,1.33,12.09,47.84626,-54.09684
2024-04-07 21:19:00+00:00,333.2197,1.35,12.01,47.84626,-54.09684
2024-04-07 21:29:00+00:00,342.2062,1.36,12.01,47.84626,-54.09684
2024-04-07 21:39:00+00:00,353.528,1.36,12.01,47.84626,-54.09684
2024-04-07 21:49:00+00:00,358.2278,1.34,12.01,47.84626,-54.09684
2024-04-07 21:59:00+00:00,360.4979,1.35,12.01,47.84626,-54.09684
2024-04-07 22:09:00+00:00,368.2512,1.35,12.01,47.84626,-54.09684
2024-04-07 22:19:00+00:00,375.1263,1.37,12.01,47.84626,-54.09684
2024-04-07 22:29:00+00:00,372.6079,1.38,12.01,47.84626,-54.09684
2024-04-07 22:39:00+00:00,374.3013,1.38,12.01,47.84626,-54.09684
2024-04-07 22:49:00+00:00,380.8146,1.39,12.01,47.84626,-54.09684
2024-04-07 22:59:00+00:00,378.62300000000016,1.39,12.01,47.84626,-54.09684
2024-04-07 23:09:00+00:00,374.9846,1.39,12.01,47.84626,-54.09684
2024-04-07 23:19:00+00:00,377.9946,1.38,11.93,47.84626,-54.09684
2024-04-07 23:29:00+00:00,379.6329,1.35,11.93,47.84626,-54.09684
2024-04-07 23:39:00+00:00,374.8412,1.38,11.93,47.84626,-54.09684
2024-04-07 23:49:00+00:00,370.2647,1.4,11.93,47.84626,-54.09684
2024-04-07 23:59:00+00:00,371.6628,1.4,11.93,47.84626,-54.09684
